sat.trackr.live / text

‹ back to catalog

UNKNOWN

NORAD 89101

UNKNOWN UNKNOWN UNKNOWN

§ Identity

Operator
Country
Launch date
Launch site
Launch vehicle
Mass (kg)
RCS (m²)

External: N2YO · Heavens-Above

§ Orbital elements

Epoch: 2026-05-19T14:32:33.277344Z

Period
110.43 min
Inclination
100.4775°
Eccentricity
0.0147673
Mean motion
13.04046819 rev/d
Perigee alt
1,133.7 km
Apogee alt
1,358.9 km
Semi-major
7,624.4 km
B*
4.0009e-5
RAAN
76.4103°
Arg perigee
115.9660°
Mean anomaly
245.6743°
Rev number
57,542

§ Raw data

UNKNOWN1 89101U          26139.60594071 -.00000029  00000+0  40009-4 0  99902 89101 100.4775  76.4103 0147673 115.9660 245.6743 13.04046819575422

JSON: /api/v1/satellites/89101 · /tle

For live sub-satellite position, see the globe view (requires WebGL).

§ Visibility from observer

Set your observer location to see the next 7 days of passes ≥ 10°. The values pass through the URL so the page stays shareable.

No JS? Fill the form by hand. The geolocation button needs JavaScript.